If you wish to contribute or participate in the discussions about articles you are invited to join SKYbrary as a registered user

 Actions

Armilla Airport

From SKYbrary Wiki

LEGA
Airport
ICAO: LEGA
Summary
Name Armilla Airport
Region Europe
Territory Spain ES.gif
Location , Andalucia
Serving Granada
Elevation 700.126 m
2,297 ft
2,297 ft700.126 m
Type medium airport
Coordinates 37° 7' 59.5992", -3° 38' 8.4984"
Runways
Designator Length Width Surface ROPS
18/36 1300 m4,265.092 ft 30 m98.425 ft ASP /


METAR
Observation LEGA 241100Z 00000KT CAVOK 09/01 Q1006
Station Granada / Armilla
Date/Time 24 February 2018 11:00:00
Wind direction
Wind speed 00 kts
Lowest cloud amount clouds and visibility OK
Temperature 9°C
Dew point 1°C
Humidity 57%
QNH 1006 hPa
Weather condition n/a